CAPE
0 0 0 0 0 0 2 0 2 14 5 3 6 5 0 7 24 16 15 20 1 2
0 0 0 0 0 0 0 0 6 9 2 10 2 0 0 17 20 22 27 3 15 4
0 0 0 0 0 0 3 5 0 7 10 1 0 4 11 18 19 22 10 9 12 3
0 0 0 0 0 0 0 9 13 6 2 2 0 0 0 0 3 8 11 8 18 3
0 0 0 0 0 0 0 3 15 5 7 18 0 1 0 2 0 0 2 3 1 1
0 0 0 0 0 0 0 0 8 0 0 5 27 1 3 0 0 3 1 2 1 0
0 0 0 0 0 0 0 0 0 0 4 0 3 17 2 2 0 0 0 4 15 7
0 0 0 0 0 0 0 0 0 0 0 0 11 12 11 4 9 3 1 0 10 5
0 0 0 0 0 0 0 0 0 0 0 0 4 41 33 10 14 16 0 4 0 6
0 0 0 0 0 0 0 0 0 0 0 0 0 51 35 20 0 11 8 1 20 9
0 0 0 0 0 0 0 0 0 0 0 0 0 31 27 4 0 0 0 0 0 2
0 0 0 0 0 0 0 0 0 0 0 0 0 30 14 0 0 0 0 0 0 2
0 0 0 0 0 0 0 0 0 0 0 0 0 8 23 3 0 0 0 0 0 8
0 0 0 0 0 0 0 0 0 0 0 0 0 0 17 22 1 0 0 0 0 0
CIN
-0 -0 -0 -0 -0 -0 -10 -0 -1 -0 -0 -0 -0 -1 -0 -8 -11 -12 -4 -2 -3 -0
-0 -0 -0 -0 -0 -0 -10 -11 -1 -0 -0 -0 -0 -0 -0 -14 -17 -10 -10 -12 -9 -5
-0 -0 -0 -0 -0 -0 -9 -11 -3 -1 -0 -0 -0 -2 -6 -10 -9 -7 -21 -17 -5 -15
-0 -0 -0 -0 -0 -0 -12 -9 -7 -4 -1 -1 -0 -0 -0 -0 -13 -10 -5 -5 -9 -4
-0 -0 -0 -0 -0 -0 -0 -16 -7 -9 -7 -1 -0 -1 -1 -0 -0 -0 -0 -16 -17 -8
-0 -0 -0 -0 -0 -0 -0 -0 -13 -0 -6 -9 -1 -3 -4 -0 -1 -2 -2 -3 -0 -0
-0 -0 -0 -0 -0 -0 -0 -0 -0 -0 -13 -0 -13 -9 -10 -8 -0 -0 -0 -8 -1 -2
-0 -0 -0 -0 -0 -0 -0 -0 -0 -0 -0 -5 -3 -2 -10 -9 -7 -5 -0 -0 -0 -3
-0 -0 -0 -0 -0 -0 -0 -0 -0 -0 -0 -0 -6 -0 -0 -8 -13 -10 -14 -0 -0 -6
-0 -0 -0 -0 -0 -0 -0 -0 -0 -0 -2 -0 -0 -0 -0 -0 -1 -13 -14 -11 -0 -0
-0 -0 -0 -0 -0 -0 -0 -0 -0 -0 -0 -7 -0 -0 -0 -0 -0 -0 -0 -0 -2 -14
-0 -0 -0 -0 -0 -0 -0 -0 -0 -0 -0 -0 -0 -0 -0 -0 -0 -0 -0 -0 -0 -9
-0 -0 -0 -0 -0 -0 -0 -0 -0 -0 -0 -0 -0 -2 -0 -0 -0 -0 -0 -0 -0 -0
-0 -0 -0 -0 -0 -0 -0 -0 -0 -0 -0 -0 -0 -0 -0 -0 -1 -0 -0 -0 -0 -0
Wind_Speed
9 9 9 11 12 4 9 11 14 16 13 9 7 7 7 4 5 3 2 3 3 3
7 9 10 13 11 5 9 11 14 18 17 9 5 6 7 5 5 2 3 4 3 3
8 7 8 10 9 8 8 11 13 15 16 13 7 7 8 8 7 4 1 1 0 2
9 12 7 8 12 13 10 9 13 13 15 13 13 12 12 12 12 11 10 7 1 4
9 11 7 7 11 13 10 8 12 13 13 12 9 11 10 10 10 10 10 10 9 8
8 7 8 6 8 12 10 6 11 10 11 10 10 12 11 12 12 11 8 7 7 8
7 6 8 7 6 8 12 9 8 10 9 12 10 7 8 7 9 12 11 10 8 8
7 7 7 10 7 6 7 10 7 10 11 9 10 9 6 7 6 8 11 11 12 7
7 7 6 10 10 6 6 6 8 9 11 10 10 21 18 9 6 6 6 11 10 10
7 7 6 8 10 8 6 6 5 6 8 9 11 25 21 17 6 5 7 8 9 8
6 6 6 6 9 7 5 6 4 4 6 8 10 23 23 20 8 6 6 6 8 7
7 6 6 7 7 7 6 5 5 4 5 6 9 22 21 12 8 9 6 5 6 8
6 6 6 7 7 5 5 6 5 6 5 10 6 18 21 13 3 7 5 6 6 15
6 6 6 6 5 6 6 7 6 7 6 7 8 10 23 23 6 3 4 4 4 5
Wind_Direction
34 5 342 326 321 322 338 335 342 335 324 311 314 314 304 302 305 264 197 232 212 220
26 358 338 322 310 326 336 344 351 351 353 13 350 318 310 311 298 342 213 220 229 220
5 332 320 321 337 335 340 352 360 2 2 8 4 346 0 349 355 1 134 261 8 202
347 325 339 358 349 338 345 5 4 3 7 11 17 12 16 8 15 16 16 4 271 204
343 327 353 9 348 335 343 20 6 5 7 8 24 20 20 18 21 17 10 359 356 354
334 336 344 7 343 339 347 16 11 5 5 359 15 29 18 17 11 5 7 360 353 340
334 353 343 333 343 357 1 355 10 5 8 358 356 30 36 35 22 13 360 352 352 351
341 343 354 344 346 11 4 357 10 7 359 4 350 12 41 19 8 26 13 354 349 0
348 345 12 349 339 354 353 10 19 3 359 350 355 24 13 48 14 19 21 13 358 353
350 344 7 354 337 331 355 358 32 7 0 344 348 19 22 27 359 7 18 14 6 3
345 347 349 354 334 325 338 353 340 4 356 352 353 15 22 19 352 2 21 10 348 8
334 348 349 339 333 324 341 338 338 338 3 2 352 3 16 29 8 349 351 11 3 6
337 344 350 333 327 322 333 336 337 348 353 6 349 354 9 23 356 351 346 354 358 357
346 343 350 333 324 341 345 341 346 349 359 346 355 0 3 4 6 357 341 353 346 334